Date,TemperatureHighF,TemperatureAvgF,TemperatureLowF,DewpointHighF,DewpointAvgF,DewpointLowF,HumidityHigh,HumidityAvg,HumidityLow,PressureMaxIn,PressureMinIn,WindSpeedMaxMPH,WindSpeedAvgMPH,GustSpeedMaxMPH,PrecipitationSumIn
2012-12-1,46.1,39.5,35.8,22.7,14.2,3.1,57,37,23,29.86,29.64,23,7,41,0.00
2012-12-2,58.7,43.1,33.8,20.3,3.7,-11.0,45,21,6,29.83,29.39,25,5,41,0.00
2012-12-3,40.9,32.9,26.1,23.0,8.3,-5.0,64,37,17,30.06,29.39,33,7,53,0.00
2012-12-4,43.1,34.5,25.8,17.4,1.5,-16.0,47,26,12,30.25,30.05,27,6,40,0.00
2012-12-5,49.9,42.3,36.0,24.1,20.0,10.3,57,42,22,30.08,29.64,32,7,42,0.00
2012-12-6,38.8,31.9,26.9,28.3,21.1,11.6,90,65,48,29.77,29.65,17,3,31,0.01
2012-12-7,33.7,27.1,18.3,17.1,14.0,9.6,87,59,39,29.80,29.67,28,6,43,0.00
2012-12-8,27.8,21.5,8.8,17.0,10.0,-2.0,83,61,43,29.81,29.59,21,8,32,0.00
2012-12-9,8.8,4.2,0.0,0.5,-5.8,-13.0,80,62,40,30.34,29.80,21,3,36,0.00
2012-12-10,16.9,10.5,3.4,6.1,-2.0,-11.0,80,56,42,30.25,30.07,43,12,56,0.00
2012-12-11,25.2,16.4,9.5,9.0,3.4,0.0,80,57,40,30.14,29.94,38,9,50,0.00
2012-12-12,39.9,31.5,23.9,7.7,3.0,-4.0,42,30,17,29.93,29.78,29,9,49,0.00
2012-12-13,42.6,33.0,28.7,5.6,1.8,-3.0,34,26,16,29.90,29.75,19,4,23,0.00
2012-12-14,36.2,30.6,27.2,19.3,8.5,0.0,69,41,25,29.75,29.34,16,2,28,0.00
2012-12-15,29.1,24.8,18.1,14.6,10.7,5.3,71,55,39,29.64,29.46,24,4,37,0.00
2012-12-16,21.0,17.8,15.1,11.0,4.9,1.0,78,57,50,29.86,29.60,39,7,39,0.00
2012-12-17,26.4,22.5,17.2,17.4,9.9,2.0,81,59,47,29.83,29.65,29,8,43,0.00
2012-12-18,25.3,19.0,10.5,19.0,13.2,5.8,87,78,57,29.76,29.63,8,2,14,0.03
2012-12-19,10.5,6.4,0.7,6.6,-1.6,-18.0,84,70,36,30.35,29.62,33,3,43,0.00
2012-12-20,29.0,19.7,2.0,-2.0,-10.2,-19.0,40,25,16,30.58,30.33,39,13,51,0.01
2012-12-21,42.6,33.0,25.6,-3.0,-8.4,-12.0,20,16,12,30.32,29.97,32,4,41,0.00
2012-12-22,43.3,34.8,30.7,-4.0,-16.0,-24.0,15,10,7,29.98,29.71,18,4,28,0.00
2012-12-23,32.8,27.6,21.3,16.5,0.9,-22.0,68,33,8,29.83,29.67,46,12,52,0.00
2012-12-24,30.1,22.9,9.3,17.1,9.2,0.0,85,58,30,29.77,29.58,28,3,30,0.00
2012-12-25,21.3,11.6,4.1,11.1,3.3,-3.0,82,70,44,30.18,29.73,8,2,13,0.01
2012-12-26,35.0,23.0,12.8,17.0,2.2,-14.0,83,42,19,30.09,29.48,16,3,24,0.01
2012-12-27,18.3,13.4,8.1,6.7,2.1,-3.0,72,60,47,29.90,29.46,14,4,19,0.00
2012-12-28,12.6,8.1,5.8,-2.0,-5.5,-8.0,60,52,43,30.33,29.90,23,8,32,0.00
2012-12-29,35.9,24.4,6.7,-8.0,-18.2,-31.0,49,15,7,30.38,29.86,15,2,23,0.01
2012-12-30,37.5,23.2,10.7,4.6,-4.5,-15.0,75,34,13,29.86,29.75,22,5,25,0.00
2012-12-31,16.4,9.7,5.8,10.0,4.3,0.0,84,78,67,30.15,29.83,5,1,8,0.00